Showing default

SALSAT, 46495

Orbit data source: Space-Track

SALSAT, 46495 is a payload satellite owned by TUB (DE) in SSO that was launched on Mon, 28 Sep 2020 UTC via a SOYUZ-2-1B launch vehicle from the Plesetsk Missile And Space Complex (PKMTR). Payload-class satellites include a variety of spacecraft equipped with specific instruments for various scientific and technological missions. These include communications satellites like Starlink; space stations such as the ISS; scientific satellites like the Hubble; Earth observation satellites from companies like Planet Labs, Umbra, and HawkEye 360; GPS; miniature CubeSats for education and research; and military/defense satellites.

Loading next visibility...
Identifier
46495, 2020-068K
Orbit
SSO
Last TLE update
12 hours ago
Origin
Manufacturer
TUB
Mission
Operational Amateur Sigint
Bus & Motor
TUBIX10, Unknown motor
Mass
12 kg wet, 12 kg dry
Launch date (UTC)
2020-09-28 (5 years ago)
Launch vehicle
SOYUZ-2-1B
Launch site
Plesetsk Missile And Space Complex (PKMTR)
Object type
Payload
Rocket body
Debris
Shape & HBR
Box, Unknown HBR
Radar Cross Section
0.086 m², Medium (>0.1 m² and < 1m²)

Expand to show TLE details & history

TLE from 12 hours ago
0 SALSAT
1 46495U 20068K   25191.49734985  .00004343  00000-0  18718-3 0  9993
2 46495  97.8613 170.9639 0012798  60.5202 299.7309 15.23084915263234
Epoch: 2025-07-10T11:56Z
TLE epoch observation values (Epoch: 2025-07-10T11:56:11.027Z)
Latitude
0.00006°
Longitude
63.25517°
Altitude
495.267 km
Speed
7.619 km/s
True Right ascension
11h 23m 51s
True Declination
0° 00' 00"
Sunlit
Object was in daylight at epoch
Visualization orbit readout
Latitude
-44.52372°
Longitude
-123.9822°
Altitude
522.289 km
Speed
7.596 km/s
Apparent Right ascension
23h 34m 07s
Apparent Declination
-42° 32' 57"
Sunlit
Object is in full shadow
Visualization observer readout
Local Sidereal Time
12:13:33
Azimuth
112.756° SE
Elevation
-82.136°
Doppler factor
1
Orbital elements
Apogee altitude
502.318 km
Perigee altitude
484.73 km
Semi-major axis
6,871.661 km
Eccentricity
0.00128
Inclination
97.8613°
RAAN
170.9639°
Arg. of periapsis
60.5202°
True anomaly
Unknown
Mean anomaly
299.7309°
Eccentric anomaly
Unknown
Mean motion
3.81022 °/min
Orbital period
94.48 mins
BSTAR
0.00018718
Loading maneuver chart data...
Loading SW <> Apogee altitude chart data...
Loading historical data...
Loading historical data...
Loading historical data...
Loading historical data...
Loading historical data...
Loading historical data...
Loading historical data...

SALSAT Visibility forecast

Observer location: undefined°, undefined°

Span
Click to sort rows by Start time (UTC) header in descending order
Start Az.
Max El. time (UTC)
Max El. Az.
Max El.
End time (UTC)
End Az.
5 mins2025-07-11 12:09:24.807Z337.624° N2025-07-11 12:11:24.807Z286.896° WNW26.548°2025-07-11 12:14:24.807Z227.775° WSW
5 mins2025-07-11 22:46:24.807Z175.22° S2025-07-11 22:48:24.807Z320.738° NNW42.304°2025-07-11 22:51:24.807Z344.661° N
|